Temperature
10 10 9 9 8 8 7 7 7 7 7 6 6 6 6 7 7 7 7 7 7 7 7 7 8 8 8 8 8 8 9 9 9 9 9 9 10 10 10 10 10 10 10
10 9 9 8 8 8 7 7 7 7 6 6 6 6 6 6 6 6 6 7 7 7 7 7 7 7 7 7 8 8 8 8 8 8 8 8 9 9 9 10 10 10 10
10 9 9 8 8 7 7 7 7 7 6 6 6 6 6 6 6 6 6 6 6 6 6 7 7 7 7 7 7 7 7 8 8 8 8 8 8 8 9 9 10 10 10
9 9 8 8 8 7 7 7 7 6 6 6 6 5 5 5 5 5 5 5 6 6 6 6 6 6 6 7 7 7 7 7 7 8 8 8 8 8 8 9 9 9 9
9 9 8 8 7 7 7 7 6 6 6 6 5 5 5 5 5 5 5 5 5 5 6 6 6 6 6 6 6 6 7 7 7 7 7 8 8 8 8 7 8 9 9
9 9 8 8 7 7 7 6 6 6 6 5 5 5 5 5 5 5 5 5 5 5 5 5 5 6 6 6 6 6 6 6 6 7 7 7 7 7 8 7 7 8 8
9 9 8 8 7 7 6 6 6 6 5 5 5 5 5 4 4 4 5 5 4 5 5 5 5 5 5 5 5 6 6 6 6 6 7 7 7 7 7 7 7 7 7
9 8 8 7 7 7 6 6 6 5 5 5 5 5 4 4 4 4 4 4 4 4 5 5 5 5 5 5 5 5 5 6 6 6 6 6 7 7 7 7 7 6 7
9 8 8 7 7 7 6 6 5 5 5 5 5 4 4 4 4 4 4 4 4 4 4 4 4 4 4 5 5 5 5 5 5 5 6 6 6 6 7 7 7 7 6
9 8 8 7 7 6 6 6 5 5 5 4 4 4 4 4 4 4 4 4 4 4 4 4 4 4 4 4 4 4 4 5 5 5 5 6 6 6 6 7 7 7 7
8 8 7 7 6 6 6 5 5 5 4 4 4 4 4 3 3 3 3 3 3 3 4 4 4 4 4 4 4 4 4 4 5 5 5 5 6 6 6 6 6 7 7
8 8 7 6 6 5 5 5 5 4 4 4 4 3 3 3 3 3 3 3 3 3 3 3 3 3 4 4 4 4 4 4 4 5 5 5 5 6 6 6 6 6 7
8 7 7 6 5 5 5 4 4 4 4 3 3 3 3 3 3 3 3 3 3 3 3 3 3 3 3 3 4 4 4 4 4 4 5 5 5 5 6 6 6 6 6
7 7 6 6 5 5 4 4 4 4 3 3 3 3 3 2 2 2 2 2 2 2 2 2 3 3 3 3 3 3 4 4 4 4 4 5 5 5 5 6 6 6 6
7 6 6 5 4 4 4 4 3 3 3 3 3 3 2 2 2 2 2 2 2 2 2 2 3 3 3 3 3 3 3 3 4 4 4 5 5 5 5 5 6 6 6
6 6 5 4 4 4 3 3 3 3 3 2 2 2 2 2 2 2 2 2 2 2 2 2 2 2 2 3 3 3 3 3 4 4 4 4 4 5 5 5 6 6 6
5 5 4 4 3 3 3 3 3 2 2 2 2 2 2 1 1 1 2 2 2 2 2 2 2 2 2 2 2 3 3 3 4 4 4 4 4 4 4 5 5 5 6
5 4 4 3 3 3 2 2 2 2 1 1 1 1 1 1 1 1 1 1 1 1 1 1 2 2 2 2 2 3 3 3 4 4 4 4 4 4 4 4 5 5 5
4 4 3 3 2 2 2 2 2 1 1 1 1 1 1 1 1 1 1 1 1 1 1 1 2 2 2 2 2 2 3 3 4 4 4 4 4 4 4 4 4 5 5
3 3 3 2 2 2 1 1 1 1 1 1 1 1 1 1 1 1 1 1 1 1 1 1 1 1 2 2 2 2 2 3 3 3 4 4 4 4 4 4 4 4 5
3 2 2 2 1 1 1 1 1 1 0 0 0 0 0 1 0 0 1 1 1 1 1 1 1 1 1 1 2 2 2 2 3 3 3 4 4 4 4 4 4 5 5
2 2 1 1 1 1 1 0 0 0 0 0 0 0 0 0 -0 0 0 0 0 0 1 1 1 1 1 1 1 2 2 2 2 3 3 3 3 4 4 4 4 4 4
1 1 1 1 1 0 0 -0 0 0 -0 -0 -0 -0 -0 -0 -0 -0 -0 -0 -0 -0 0 0 0 0 1 1 1 1 2 2 2 2 2 3 3 3 3 4 4 4 4
1 1 0 0 0 0 -0 -0 -0 -0 -1 -1 -1 -1 -1 -1 -1 -1 -1 -1 -1 -1 -0 -0 -0 0 0 1 1 1 1 2 2 2 2 3 3 3 3 3 3 3 4
0 -0 -0 -0 -0 -0 -1 -1 -1 -1 -1 -1 -1 -1 -1 -1 -1 -1 -1 -1 -1 -1 -1 -1 -1 -1 -0 0 1 1 1 1 1 2 2 2 2 2 3 3 3 3 3
-0 -1 -1 -1 -1 -1 -1 -1 -1 -2 -2 -2 -2 -2 -2 -2 -2 -2 -1 -1 -1 -1 -1 -1 -1 -0 -0 0 0 1 1 1 1 2 2 2 2 2 2 2 3 3 3
Wind_Speed
2 2 2 2 3 3 4 4 4 4 3 3 3 3 4 4 4 4 5 5 5 5 4 4 4 4 4 5 5 4 5 4 3 2 2 3 4 5 6 6 6 7 10
1 2 2 2 3 3 4 4 5 5 4 3 4 4 4 4 5 4 5 6 6 5 6 5 5 5 4 5 5 4 4 4 4 3 3 2 2 4 6 6 7 7 7
3 3 3 3 3 3 4 5 5 5 5 5 4 4 4 4 4 5 5 6 7 6 6 7 6 6 6 6 6 6 6 5 5 5 4 3 3 2 3 5 6 7 6
3 3 3 4 3 4 4 5 6 6 6 5 5 6 6 6 7 6 5 6 7 8 8 8 7 7 6 7 7 7 6 6 6 6 5 4 3 3 2 3 5 6 7
3 3 4 4 4 4 4 5 6 6 6 5 5 6 7 7 6 6 7 7 7 8 9 9 8 8 7 8 8 7 7 7 7 6 5 4 4 4 4 5 5 4 5
3 4 4 4 4 4 4 5 6 6 6 6 6 7 8 8 8 9 8 7 7 7 8 9 9 9 8 9 9 9 9 8 8 7 6 6 5 6 5 6 7 6 5
2 3 5 5 5 6 5 5 5 6 6 6 6 7 8 8 9 9 8 8 7 7 8 9 9 8 9 9 9 10 10 10 10 9 8 7 7 6 5 6 5 4 3
3 4 5 6 6 6 5 5 6 7 7 7 7 7 7 6 7 8 8 8 8 8 8 9 9 10 10 11 10 10 10 10 10 11 10 7 8 7 6 6 6 5 3
4 4 4 5 5 6 6 6 7 7 7 7 7 7 8 8 8 8 8 8 8 9 10 9 10 9 10 11 11 10 11 10 10 10 10 9 8 7 7 7 7 7 6
4 5 5 5 5 6 6 6 7 8 8 7 7 7 7 8 8 8 9 10 10 9 9 9 10 10 11 11 11 11 11 12 11 9 10 10 8 7 7 7 7 6 6
5 5 5 5 6 6 6 7 7 8 8 7 7 8 8 8 8 8 10 10 10 9 9 9 9 10 11 11 11 12 12 13 12 11 11 11 10 8 8 7 7 7 6
5 4 4 5 6 7 7 7 7 8 8 8 8 8 8 8 8 9 10 9 9 9 9 9 9 10 11 11 12 13 13 13 13 12 12 12 10 10 9 8 9 8 7
5 5 5 6 7 7 8 8 7 8 8 8 8 8 8 8 9 9 9 9 9 8 8 9 10 11 11 11 12 13 13 13 13 13 13 12 12 11 10 10 9 7 7
5 5 6 7 7 8 8 8 8 8 8 8 8 8 9 9 9 9 8 8 8 8 8 9 10 10 10 10 10 12 12 12 12 12 12 12 13 12 11 10 10 9 8
6 7 7 7 8 8 8 8 8 8 8 8 9 9 9 9 8 8 8 7 7 8 7 8 9 8 8 8 8 9 11 11 12 12 11 11 12 14 12 11 10 10 9
7 8 8 8 9 9 9 9 8 8 8 8 9 9 8 8 8 8 8 7 7 6 6 7 7 7 7 10 12 10 8 9 11 11 10 10 11 12 13 14 15 14 12
8 8 8 8 9 9 8 8 8 8 8 8 9 9 8 8 8 8 8 7 6 6 7 6 7 6 7 11 11 12 8 8 9 10 9 9 9 10 8 9 10 11 14
7 7 7 8 8 8 8 8 7 7 7 8 8 8 8 8 8 7 8 7 6 6 6 6 6 5 7 11 12 11 7 7 8 9 10 9 9 9 8 7 7 7 7
6 6 7 8 8 8 8 7 7 7 7 8 9 9 9 9 8 8 8 6 6 6 6 6 6 6 8 11 11 10 5 6 7 8 8 9 9 10 10 8 7 7 5
6 6 7 7 7 8 7 7 8 7 8 8 9 9 8 8 8 8 7 6 6 6 6 6 6 6 6 9 9 8 4 5 5 5 6 9 10 11 10 9 9 9 8
7 7 7 7 7 7 7 7 8 8 8 8 8 9 8 8 8 7 6 6 6 5 5 6 5 5 6 6 7 8 4 4 4 4 5 6 9 10 10 9 8 11 10
7 7 7 7 7 6 6 7 8 8 8 8 8 9 8 8 8 7 6 5 5 5 5 5 5 4 4 5 6 8 7 6 4 4 4 4 7 8 8 7 10 12 10
7 7 7 7 7 6 6 8 8 8 8 8 9 8 9 8 7 7 6 6 5 4 5 4 5 5 3 3 6 6 6 7 4 3 4 4 6 6 6 9 11 10 8
7 7 7 7 7 7 6 7 8 8 8 8 8 8 8 8 7 6 5 5 5 4 4 5 5 4 4 3 2 2 2 3 2 1 1 3 4 4 6 8 8 6 7
6 6 7 7 8 7 7 7 7 7 8 8 8 7 7 7 6 6 6 6 5 6 5 4 4 4 5 5 7 5 3 2 2 2 1 2 4 4 5 5 5 6 6
6 7 7 7 7 7 7 7 7 7 7 8 7 6 6 6 5 6 7 8 8 10 10 8 7 6 6 7 7 7 6 5 3 1 1 2 4 5 6 6 5 5 6
Wind_Direction
210 196 226 247 260 266 277 288 293 283 272 276 270 270 267 266 269 261 266 269 263 255 247 256 246 242 241 241 241 239 231 227 217 210 230 250 228 220 215 211 203 200 196
238 250 266 268 261 265 281 287 289 285 273 267 266 257 264 264 260 257 260 259 257 251 256 243 239 238 242 243 239 240 238 229 205 196 191 237 253 236 224 211 208 206 201
225 251 267 275 282 278 273 287 287 285 272 270 277 276 275 278 273 266 263 259 260 252 249 245 238 234 231 237 237 228 236 228 218 203 196 192 216 240 239 223 215 205 205
219 248 269 280 284 275 271 275 283 279 273 272 273 271 273 273 271 266 262 261 259 250 244 242 238 232 229 231 235 233 224 224 220 221 229 227 201 203 233 234 222 210 210
221 247 260 267 275 274 266 268 271 273 272 268 265 267 272 272 273 272 269 270 262 250 243 238 235 232 228 226 228 230 223 222 221 222 221 230 219 211 210 227 223 228 215
239 248 259 268 281 283 277 267 267 273 274 271 265 261 266 272 276 275 270 267 262 251 241 236 233 231 228 226 226 226 225 225 224 224 221 214 208 206 209 215 212 224 231
273 271 276 279 286 288 279 270 272 280 280 277 273 265 265 267 268 269 267 269 267 259 245 241 236 235 230 228 227 226 226 224 223 220 223 225 224 215 219 210 216 230 252
265 272 269 275 281 284 284 281 282 286 285 281 276 270 268 267 267 267 267 266 264 257 251 242 241 241 234 232 228 229 227 226 223 225 221 226 228 216 208 208 205 219 250
276 288 286 284 286 286 281 278 283 286 287 284 281 280 275 274 272 271 271 271 270 264 255 248 245 243 239 233 230 231 229 226 224 223 221 224 229 219 209 206 200 206 228
290 300 293 291 292 289 286 287 284 284 282 281 282 287 282 280 274 275 274 273 272 266 261 256 252 249 241 235 232 232 227 227 226 222 221 224 227 218 205 203 212 208 212
296 295 293 296 296 292 291 293 292 293 292 286 284 284 284 284 281 278 273 271 269 263 260 257 255 253 247 236 231 232 226 226 225 224 223 223 219 215 205 201 208 209 205
296 297 297 301 302 299 299 296 296 296 292 290 289 286 284 284 283 281 277 272 269 263 259 257 257 256 253 239 231 232 229 225 224 223 222 222 219 215 207 203 208 210 206
308 314 315 311 306 305 303 299 297 295 293 292 290 288 285 284 281 282 280 274 272 268 264 261 258 257 252 246 234 231 230 226 223 221 221 219 213 217 212 205 207 207 206
316 317 312 308 306 306 306 304 301 298 298 295 290 287 285 284 284 286 281 274 272 269 267 265 262 257 254 253 243 231 227 226 226 223 220 217 215 215 212 209 206 202 197
315 314 312 309 308 309 306 302 300 299 298 295 292 288 287 286 286 290 289 282 277 276 273 272 266 257 252 252 246 232 227 223 226 224 219 220 219 218 217 211 201 195 195
310 314 314 312 310 308 305 303 301 302 301 298 295 295 296 293 291 293 295 284 276 277 279 273 267 259 258 261 257 253 232 227 227 223 220 220 217 218 225 220 211 203 199
308 312 313 310 309 308 305 303 304 307 306 302 302 299 297 296 292 292 293 282 277 277 276 274 271 266 264 263 262 264 252 236 228 220 219 222 219 216 207 209 208 209 207
313 316 317 313 310 306 307 306 308 309 305 304 306 305 304 301 297 295 290 279 278 275 274 275 275 271 271 272 267 267 259 246 229 224 217 213 211 209 198 196 201 204 206
315 312 309 307 309 309 309 312 310 309 306 306 306 307 305 305 302 300 295 286 280 277 273 272 273 270 268 274 273 271 257 248 237 226 216 209 206 202 196 192 194 193 190
319 317 317 314 312 309 313 315 309 310 305 305 305 305 305 305 303 302 299 290 281 281 280 275 270 273 270 271 277 280 259 252 240 223 213 211 207 199 193 192 188 185 182
318 320 317 313 306 309 315 311 307 309 308 307 309 311 310 307 304 301 296 289 291 286 285 287 288 285 278 276 279 287 273 255 240 231 222 210 202 199 199 199 191 183 173
316 317 318 312 312 315 317 311 307 308 313 313 309 309 310 309 306 302 304 301 302 296 289 295 302 301 290 282 280 291 288 288 262 247 235 211 197 197 193 186 174 166 162
317 318 314 308 311 313 314 310 310 313 313 315 314 310 309 310 310 311 311 310 304 299 297 295 295 298 295 281 291 300 308 304 294 265 238 210 193 189 180 169 165 164 163
314 315 314 310 310 313 312 309 314 318 318 318 317 314 314 315 318 318 312 308 306 301 296 296 295 298 302 300 301 316 323 331 331 316 221 187 177 165 157 158 158 163 164
312 317 315 308 309 314 315 317 320 323 321 317 317 318 319 318 322 322 315 307 300 293 290 290 290 290 295 296 303 302 302 302 286 288 257 179 166 158 155 153 152 153 152
318 319 316 311 312 316 318 320 322 321 318 317 317 318 318 318 319 321 322 319 310 314 308 299 296 297 292 303 311 313 313 315 296 287 187 185 171 164 161 155 151 152 154
Height
1463 1463 1463 1463 1462 1461 1459 1457 1456 1454 1453 1451 1450 1448 1447 1446 1446 1445 1445 1445 1444 1444 1444 1444 1445 1446 1447 1447 1448 1449 1450 1450 1452 1454 1455 1457 1459 1460 1461 1463 1465 1467 1470
1460 1460 1460 1459 1458 1457 1456 1454 1453 1451 1450 1448 1446 1445 1443 1441 1441 1440 1440 1440 1440 1439 1439 1439 1440 1441 1442 1442 1443 1444 1445 1445 1447 1449 1450 1451 1454 1455 1457 1458 1460 1462 1464
1457 1457 1457 1456 1455 1454 1452 1451 1449 1447 1446 1444 1442 1440 1438 1437 1436 1435 1434 1434 1434 1434 1434 1434 1435 1435 1436 1436 1438 1439 1440 1440 1442 1444 1446 1446 1446 1449 1451 1453 1455 1457 1459
1454 1454 1453 1452 1451 1450 1448 1447 1445 1443 1442 1440 1438 1436 1433 1431 1430 1430 1429 1429 1429 1428 1428 1428 1428 1429 1430 1430 1432 1433 1435 1436 1436 1438 1440 1442 1441 1444 1445 1448 1450 1452 1453
1451 1451 1450 1449 1448 1446 1445 1443 1441 1439 1438 1436 1434 1431 1429 1427 1426 1424 1423 1422 1422 1422 1422 1422 1422 1422 1423 1424 1425 1427 1429 1430 1431 1432 1434 1435 1437 1438 1440 1441 1443 1446 1448
1448 1448 1447 1446 1444 1443 1441 1439 1437 1434 1433 1431 1429 1427 1424 1422 1420 1418 1417 1416 1415 1414 1414 1414 1415 1415 1416 1417 1418 1420 1421 1423 1425 1426 1428 1428 1429 1431 1434 1436 1438 1440 1442
1445 1444 1443 1442 1440 1438 1436 1434 1432 1430 1428 1426 1424 1422 1420 1417 1415 1413 1411 1409 1408 1407 1406 1407 1407 1407 1408 1410 1412 1413 1414 1416 1417 1419 1421 1423 1424 1427 1429 1431 1433 1435 1436
1442 1441 1440 1438 1437 1435 1432 1430 1428 1425 1423 1421 1419 1417 1414 1412 1409 1407 1405 1403 1401 1399 1399 1399 1399 1400 1401 1402 1404 1405 1406 1408 1410 1412 1414 1416 1418 1420 1422 1425 1428 1429 1430
1438 1437 1436 1434 1433 1431 1428 1426 1423 1421 1418 1416 1414 1411 1408 1406 1403 1400 1398 1396 1393 1392 1391 1391 1392 1392 1393 1394 1395 1396 1398 1400 1402 1404 1406 1409 1411 1413 1416 1419 1421 1423 1424
1434 1433 1432 1430 1428 1427 1424 1422 1419 1416 1414 1411 1408 1405 1402 1399 1396 1393 1390 1388 1386 1385 1384 1383 1383 1383 1384 1385 1387 1388 1389 1392 1394 1397 1399 1401 1404 1406 1409 1412 1415 1417 1418
1431 1429 1428 1426 1425 1422 1420 1417 1414 1411 1408 1405 1402 1399 1396 1393 1390 1386 1383 1381 1379 1378 1377 1376 1375 1375 1375 1377 1378 1379 1381 1383 1385 1388 1391 1394 1397 1399 1401 1404 1408 1410 1413
1427 1426 1424 1422 1420 1418 1415 1412 1409 1405 1402 1399 1396 1392 1389 1386 1383 1380 1377 1375 1373 1371 1370 1369 1368 1367 1367 1368 1369 1370 1372 1374 1376 1379 1383 1386 1389 1391 1394 1397 1400 1403 1406
1424 1422 1420 1418 1416 1413 1410 1407 1403 1400 1396 1393 1389 1386 1383 1380 1377 1373 1370 1368 1366 1364 1363 1362 1361 1360 1360 1360 1360 1362 1363 1365 1368 1371 1374 1378 1381 1383 1386 1390 1393 1396 1399
1420 1419 1417 1414 1411 1408 1405 1401 1398 1394 1390 1387 1383 1380 1376 1373 1370 1367 1364 1362 1360 1358 1356 1355 1354 1353 1353 1352 1352 1353 1355 1358 1361 1364 1367 1370 1373 1375 1379 1382 1385 1389 1392
1417 1415 1413 1410 1406 1403 1400 1396 1392 1389 1385 1381 1377 1374 1371 1367 1364 1361 1359 1357 1354 1353 1351 1348 1347 1347 1347 1346 1345 1346 1348 1351 1353 1356 1359 1362 1365 1368 1371 1375 1378 1382 1385
1413 1411 1408 1405 1401 1398 1394 1390 1387 1383 1380 1376 1372 1368 1365 1361 1358 1356 1353 1351 1349 1347 1345 1343 1342 1341 1341 1341 1341 1342 1343 1344 1346 1348 1351 1355 1358 1361 1365 1368 1372 1375 1378
1409 1407 1404 1401 1397 1393 1390 1386 1382 1379 1375 1371 1367 1363 1360 1357 1354 1351 1349 1347 1345 1343 1341 1339 1338 1336 1336 1336 1336 1337 1337 1339 1340 1342 1344 1347 1351 1354 1357 1361 1365 1369 1372
1405 1402 1399 1396 1392 1388 1385 1381 1378 1374 1371 1367 1363 1360 1356 1353 1349 1347 1345 1343 1341 1339 1337 1335 1334 1332 1332 1332 1332 1333 1333 1333 1334 1336 1338 1341 1344 1347 1351 1355 1358 1362 1365
1402 1398 1395 1391 1387 1384 1381 1377 1373 1370 1367 1363 1360 1356 1353 1349 1346 1343 1340 1338 1336 1334 1333 1331 1330 1329 1328 1327 1328 1329 1329 1329 1330 1331 1332 1335 1337 1341 1345 1348 1351 1355 1359
1397 1394 1390 1386 1383 1380 1377 1373 1370 1366 1363 1360 1357 1353 1350 1347 1343 1340 1337 1335 1333 1331 1329 1327 1326 1325 1323 1323 1324 1325 1325 1325 1325 1326 1327 1329 1331 1334 1338 1342 1345 1349 1353
1393 1389 1386 1382 1379 1377 1373 1370 1366 1363 1360 1357 1353 1350 1347 1343 1340 1337 1334 1332 1330 1328 1326 1324 1322 1321 1320 1320 1320 1321 1321 1321 1320 1320 1322 1324 1326 1329 1332 1336 1340 1344 1349
1389 1386 1382 1379 1376 1373 1370 1367 1363 1361 1357 1353 1349 1346 1343 1340 1337 1334 1331 1329 1327 1324 1323 1321 1319 1317 1317 1317 1316 1316 1317 1317 1316 1316 1317 1318 1321 1323 1327 1331 1335 1340 1345
1386 1382 1379 1375 1372 1370 1367 1364 1360 1357 1354 1350 1346 1343 1339 1337 1334 1331 1328 1326 1324 1322 1320 1318 1316 1314 1314 1314 1313 1313 1313 1313 1312 1312 1313 1314 1316 1319 1323 1327 1332 1337 1341
1382 1379 1375 1371 1368 1366 1364 1361 1358 1354 1351 1347 1343 1340 1336 1333 1331 1328 1326 1324 1321 1320 1318 1316 1314 1312 1311 1310 1310 1309 1309 1309 1308 1308 1309 1311 1313 1316 1319 1324 1329 1334 1338
1378 1375 1372 1368 1365 1363 1360 1358 1355 1352 1348 1344 1340 1337 1334 1331 1328 1326 1324 1322 1320 1319 1316 1314 1312 1310 1308 1307 1308 1307 1307 1306 1305 1306 1307 1308 1311 1314 1317 1321 1326 1331 1336
1375 1371 1368 1365 1362 1360 1357 1354 1352 1349 1345 1341 1338 1335 1332 1329 1326 1323 1321 1319 1318 1316 1314 1312 1311 1309 1308 1306 1305 1305 1304 1303 1303 1304 1304 1306 1309 1311 1315 1320 1324 1329 1334